SCP
0 0 0 0 0 0 0 0 0 0 0 0 0 0 0 0 0 0 0 0 0 0 0 0 0 0 0 0 0 0 0 0 0 0 0 0 0 0
0 0 0 0 0 0 0 0 0 0 0 0 0 0 0 0 0 0 0 0 0 0 0 0 0 0 0 0 0 0 0 0 0 0 0 0 0 0
0 0 0 0 0 0 0 0 0 0 0 0 0 0 0 0 0 0 0 0 0 0 0 0 0 0 0 0 0 0 0 0 0 0 0 0 0 0
0 0 0 0 0 0 0 0 0 0 0 0 0 0 0 0 0 0 0 0 0 0 0 0 0 0 0 0 0 0 0 0 0 0 0 0 0 0
0 0 0 0 0 0 0 0 0 0 0 0 0 0 0 0 0 0 0 0 0 0 0 0 0 0 0 0 0 0 0 0 0 0 0 0 0 0
0 0 0 0 0 0 0 0 0 0 0 0 0 0 0 0 0 0 0 0 0 0 0 0 0 0 0 0 0 0 0 0 0 0 0 0 0 0
0 0 0 0 0 0 0 0 0 0 0 0 0 0 0 0 0 0 0 0 0 0 0 0 0 0 0 0 0 0 0 0 0 0 0 0 0 0
0 0 0 0 0 0 0 0 0 0 0 0 0 0 0 0 0 0 0 0 0 0 0 0 0 0 0 0 0 0 0 0 0 0 0 0 0 0
0 0 0 0 0 0 0 0 0 0 0 0 0 0 1 0 0 0 0 0 0 0 0 0 0 0 0 0 0 0 0 0 0 0 0 0 0 0
0 0 0 0 0 0 0 0 0 0 0 0 0 0 0 0 0 0 0 0 0 0 0 0 0 0 0 0 0 0 0 0 0 0 0 0 0 0
0 0 0 0 0 0 0 0 0 0 0 0 0 0 0 0 0 0 0 0 0 0 0 0 0 0 0 0 0 0 0 0 0 0 0 0 0 0
0 0 0 0 0 0 0 0 0 0 0 0 0 0 0 0 0 0 0 0 0 0 0 0 0 0 0 0 0 0 0 0 0 0 0 0 0 0
0 0 0 0 0 0 0 0 0 0 0 0 0 0 0 0 0 0 0 0 0 0 0 0 0 0 0 0 0 0 0 0 0 0 0 0 0 0
0 0 0 0 0 0 0 0 0 0 0 0 0 0 0 0 0 0 0 0 0 0 0 0 0 0 0 0 0 0 0 0 0 0 0 0 0 0
0 0 0 0 0 0 0 0 0 0 0 0 0 0 0 0 0 0 0 0 0 0 0 0 0 0 0 0 0 0 0 0 0 0 0 0 0 0
0 0 0 0 0 0 0 0 0 0 0 0 0 0 0 0 0 0 0 0 0 0 0 0 0 0 0 0 0 0 0 0 0 0 0 0 0 0
0 0 0 0 0 0 0 0 0 0 0 0 0 0 0 0 0 0 0 0 0 0 0 0 0 0 0 0 0 0 0 0 0 0 0 0 0 0
0 0 0 0 0 0 0 0 0 0 0 0 0 0 0 0 0 0 0 0 0 0 0 0 0 0 0 0 0 0 0 0 0 0 0 0 0 0
0 0 0 0 0 0 0 0 0 0 0 0 0 0 0 0 0 0 0 0 0 0 0 0 0 0 0 0 0 0 0 0 0 0 0 0 0 0
0 0 0 0 0 0 0 0 0 0 0 0 0 0 0 0 0 0 0 0 0 0 0 0 0 0 0 0 0 0 0 0 0 0 0 0 0 0
0 0 0 0 0 0 0 0 0 0 0 0 0 0 0 0 0 0 0 0 0 0 0 0 0 0 0 0 0 0 0 0 0 0 0 0 0 0
0 0 0 0 0 0 0 0 0 0 0 0 0 0 0 0 0 0 0 0 0 0 0 0 0 0 0 0 0 0 0 0 0 0 0 0 0 0
0 0 0 0 0 0 0 0 0 0 0 0 0 0 0 0 0 0 0 0 0 0 0 0 0 0 0 0 0 0 0 0 0 0 0 0 0 0
Wind_Speed
2 2 2 2 2 2 2 3 2 2 3 2 2 2 2 2 3 3 3 4 4 5 5 5 5 5 5 5 4 4 4 5 4 4 4 4 4 4
2 2 2 2 2 2 2 2 3 3 3 2 2 2 2 3 3 3 4 5 5 5 5 5 5 5 5 5 5 5 5 5 5 5 5 4 4 5
2 2 3 2 2 2 2 2 2 3 4 3 1 2 2 3 3 3 3 3 4 6 6 6 6 6 6 6 6 6 6 6 6 6 6 5 5 5
3 3 4 3 3 2 2 3 3 4 4 4 2 2 3 3 3 3 3 3 3 6 7 7 7 7 7 7 7 7 7 7 7 6 6 5 5 6
4 4 4 3 4 3 4 4 3 3 3 3 3 2 2 2 2 2 3 3 3 4 5 6 6 7 7 7 7 7 7 7 7 6 6 5 5 5
4 5 5 5 5 5 4 4 4 4 3 3 3 3 2 2 2 2 3 2 3 3 3 4 5 7 7 7 7 8 8 8 7 7 6 6 5 5
5 5 6 6 7 6 4 4 4 4 3 3 4 3 3 2 3 2 3 3 3 3 3 3 3 4 5 7 8 9 8 9 9 8 7 7 6 6
5 5 6 6 7 8 8 7 6 6 5 4 4 4 5 4 3 3 3 2 3 2 3 4 3 4 4 5 7 8 9 9 9 9 8 8 7 7
5 5 5 4 5 4 5 6 7 8 7 5 6 6 5 5 4 4 4 5 4 2 3 3 3 4 4 5 7 9 9 10 10 9 9 8 8 7
5 5 5 5 5 4 4 4 4 5 6 5 6 6 6 4 5 5 5 4 3 2 3 3 3 3 4 4 6 9 10 10 10 10 10 9 8 8
5 5 5 6 7 5 4 5 5 4 4 5 5 6 5 5 4 3 3 3 3 3 3 3 2 2 3 3 4 7 9 10 10 10 10 10 9 8
4 4 6 7 7 6 5 5 5 5 4 3 4 4 4 4 5 5 4 4 3 3 3 4 3 2 2 2 2 3 4 7 8 9 10 10 9 6
4 4 4 5 7 7 6 5 7 5 3 3 3 2 2 2 3 4 4 5 5 5 3 3 3 3 3 2 2 2 2 3 4 5 7 8 9 8
5 4 4 5 6 6 5 5 5 4 2 2 2 2 3 3 3 3 4 5 6 6 5 5 4 4 3 3 3 2 2 2 3 3 3 5 7 9
4 5 5 5 5 4 4 5 3 2 2 2 3 3 3 3 3 2 3 3 4 5 4 5 5 4 4 4 3 3 2 2 3 3 3 4 4 5
3 4 4 4 4 4 3 3 2 2 2 3 3 3 2 2 2 2 2 2 2 3 3 3 4 5 4 4 4 4 3 3 3 4 3 3 3 4
2 2 2 2 2 2 2 2 2 2 2 3 3 3 3 3 3 2 2 2 2 3 3 2 1 2 4 4 4 4 3 3 3 3 4 3 4 4
1 1 3 3 3 3 3 3 3 2 3 3 3 3 3 3 3 2 2 2 3 3 3 2 1 0 1 2 4 5 4 4 3 3 4 4 4 4
2 3 3 4 4 4 3 4 4 3 3 3 3 3 3 3 3 3 3 3 3 3 3 2 2 2 3 4 2 4 4 3 2 3 3 4 4 4
3 4 4 4 4 4 4 4 4 3 3 3 3 4 4 4 4 4 3 4 4 3 3 3 3 3 4 4 3 2 5 5 3 3 3 3 3 3
4 4 4 4 4 4 3 3 4 4 4 3 3 4 4 4 4 4 4 4 4 4 4 4 4 4 2 2 2 2 2 3 4 3 3 3 2 2
4 4 4 4 4 3 3 3 4 4 4 4 4 4 4 4 5 5 4 4 4 4 4 4 3 2 2 3 4 3 2 1 1 3 3 4 3 3
4 4 4 4 3 3 3 4 5 4 4 4 4 4 4 4 4 4 4 4 4 4 4 3 2 2 2 3 3 3 3 2 1 1 1 1 3 4
Wind_Direction
235 230 230 229 207 211 196 186 194 243 263 247 251 242 228 229 233 238 242 236 225 223 222 221 223 218 212 211 213 211 214 213 212 212 221 229 231 234
236 237 244 234 221 218 210 210 207 212 245 247 241 251 240 240 231 234 238 234 228 230 229 226 222 215 210 207 207 208 209 208 208 213 222 230 231 232
257 241 248 230 221 225 217 215 217 208 240 264 245 249 226 236 240 237 238 235 237 232 231 228 223 221 216 212 209 209 209 208 211 217 223 226 231 233
258 251 254 242 227 229 226 229 227 219 225 254 256 239 237 237 237 242 244 240 245 240 235 231 229 224 219 214 210 210 210 209 209 211 214 219 228 230
252 250 253 247 247 241 235 236 236 233 223 232 253 237 242 239 240 250 249 246 249 242 233 229 227 224 220 214 210 209 210 208 208 208 208 215 221 222
250 248 249 242 245 243 241 238 235 236 231 234 245 246 241 229 216 237 256 244 254 247 238 230 221 219 218 216 215 213 211 208 206 205 205 210 212 212
254 251 249 249 249 243 243 238 229 230 235 239 243 244 235 216 223 221 241 261 254 231 241 238 227 226 223 221 219 215 211 207 204 203 204 208 211 209
259 263 258 254 259 253 247 241 229 226 230 231 240 240 244 232 226 225 231 240 255 214 220 246 224 231 232 226 216 211 209 206 203 202 203 205 208 211
259 261 266 267 257 258 248 246 241 239 227 222 236 242 243 233 221 231 229 232 242 213 204 250 232 242 238 229 215 213 211 207 204 204 206 205 205 207
262 259 261 270 264 255 246 249 249 246 237 231 237 246 245 238 220 224 230 243 254 224 199 237 235 245 251 241 217 212 213 211 209 206 207 207 206 205
267 266 262 266 271 259 242 247 254 259 249 237 241 251 250 239 221 207 215 223 248 238 200 222 229 241 254 246 229 213 212 212 211 208 207 206 206 204
274 271 266 266 268 252 237 240 250 260 265 272 266 266 258 248 225 216 221 229 242 248 203 206 221 209 249 245 239 228 216 212 208 209 207 204 199 198
273 276 275 274 263 252 237 237 243 249 257 260 268 269 265 255 244 235 230 227 232 240 214 197 215 212 223 243 241 227 217 217 208 206 205 201 194 193
264 273 273 272 270 265 246 242 241 243 251 257 263 263 264 267 264 253 245 241 241 244 230 203 208 210 214 235 243 222 217 218 210 207 199 188 193 199
257 269 278 279 280 273 253 243 229 222 227 244 256 261 262 265 267 264 258 254 258 252 236 217 218 217 220 230 235 223 221 221 208 201 198 197 195 191
265 281 285 287 281 277 269 255 233 222 222 243 257 266 274 273 267 267 271 272 273 278 262 234 225 216 225 230 231 239 228 214 201 202 200 206 207 204
257 270 285 292 292 289 280 268 253 240 239 247 251 262 268 266 268 263 253 252 253 271 286 305 260 229 230 223 231 240 238 231 221 202 196 213 223 216
188 252 267 268 268 269 270 267 253 246 245 243 245 251 258 261 265 264 254 247 253 260 266 276 286 255 232 244 230 238 234 231 224 207 205 216 230 219
201 248 258 261 260 256 252 253 257 255 245 240 244 251 254 258 260 261 256 255 257 260 263 256 231 220 240 261 256 219 226 238 226 215 215 216 231 229
236 253 259 259 259 259 255 254 257 259 255 249 248 252 250 251 255 256 251 252 256 260 260 253 239 231 233 247 254 256 227 225 218 222 221 222 236 238
247 252 258 259 260 257 261 261 259 258 258 256 252 247 246 245 248 251 250 249 252 255 253 254 253 245 246 224 231 248 250 225 217 216 214 214 223 225
260 258 259 258 257 252 248 255 262 261 258 255 258 255 248 243 245 248 249 247 249 251 259 266 264 235 220 221 235 250 256 252 233 212 213 212 213 218
263 262 263 264 259 251 247 249 253 257 256 257 259 257 253 251 250 247 246 246 246 249 253 256 257 248 240 232 233 239 243 240 221 210 245 228 218 231